Previsão horária em Al Khiyam

Hoje, 15 Junho, Terça-feira

Tempo Temperatura Precipitação Vento Pressão Humidade
00:00 +18°C° 0 mm 2 m/s 710 mmHg 80%
01:00 +17°C° 0 mm 2 m/s 710 mmHg 79%
02:00 +17°C° 0 mm 2 m/s 709 mmHg 79%
03:00 +17°C° 0 mm 2 m/s 709 mmHg 78%
04:00 +17°C° 0 mm 2 m/s 710 mmHg 77%
05:00 +17°C° 0 mm 2 m/s 710 mmHg 76%
06:00 +19°C° 0 mm 2 m/s 710 mmHg 66%
07:00 +21°C° 0 mm 3 m/s 710 mmHg 56%
08:00 +24°C° 0 mm 3 m/s 710 mmHg 45%
09:00 +25°C° 0 mm 4 m/s 711 mmHg 43%
10:00 +26°C° 0 mm 4 m/s 711 mmHg 41%
11:00 +27°C° 0 mm 5 m/s 711 mmHg 39%
12:00 +27°C° 0 mm 5 m/s 710 mmHg 40%
13:00 +27°C° 0 mm 5 m/s 710 mmHg 41%
14:00 +27°C° 0 mm 6 m/s 710 mmHg 42%
15:00 +26°C° 0 mm 5 m/s 710 mmHg 46%
16:00 +25°C° 0 mm 5 m/s 709 mmHg 49%
17:00 +25°C° 0 mm 5 m/s 709 mmHg 53%
18:00 +22°C° 0 mm 4 m/s 709 mmHg 61%
19:00 +21°C° 0 mm 3 m/s 709 mmHg 70%
20:00 +19°C° 0 mm 2 m/s 709 mmHg 79%
21:00 +19°C° 0 mm 2 m/s 709 mmHg 81%
22:00 +19°C° 0 mm 1 m/s 709 mmHg 82%
23:00 +19°C° 0 mm 1 m/s 709 mmHg 83%

Amanhã, 16 Junho, Quarta-feira

Tempo Temperatura Precipitação Vento Pressão Humidade
00:00 +18°C° 0 mm 1 m/s 709 mmHg 84%
01:00 +18°C° 0 mm 1 m/s 709 mmHg 85%
02:00 +18°C° 0 mm 1 m/s 709 mmHg 86%
03:00 +18°C° 0 mm 1 m/s 709 mmHg 87%
04:00 +18°C° 0 mm 1 m/s 709 mmHg 88%
05:00 +18°C° 0 mm 1 m/s 709 mmHg 89%
06:00 +19°C° 0 mm 2 m/s 710 mmHg 79%
07:00 +20°C° 0 mm 3 m/s 710 mmHg 69%
08:00 +22°C° 0 mm 3 m/s 711 mmHg 59%
09:00 +23°C° 0 mm 4 m/s 711 mmHg 56%
10:00 +25°C° 0 mm 5 m/s 711 mmHg 52%
11:00 +27°C° 0 mm 6 m/s 711 mmHg 48%
12:00 +27°C° 0 mm 6 m/s 711 mmHg 48%
13:00 +26°C° 0 mm 6 m/s 711 mmHg 49%
14:00 +26°C° 0 mm 7 m/s 711 mmHg 49%
15:00 +24°C° 0 mm 6 m/s 711 mmHg 52%
16:00 +23°C° 0 mm 6 m/s 711 mmHg 55%
17:00 +23°C° 0 mm 6 m/s 711 mmHg 58%
18:00 +21°C° 0 mm 5 m/s 711 mmHg 67%
19:00 +20°C° 0 mm 4 m/s 711 mmHg 75%
20:00 +18°C° 0 mm 3 m/s 712 mmHg 83%
21:00 +18°C° 0 mm 3 m/s 712 mmHg 83%
22:00 +18°C° 0 mm 3 m/s 712 mmHg 84%
23:00 +17°C° 0 mm 2 m/s 712 mmHg 84%

Depois de amanhã, 17 Junho, Quinta-feira

Tempo Temperatura Precipitação Vento Pressão Humidade
00:00 +17°C° 0 mm 2 m/s 712 mmHg 83%
01:00 +17°C° 0 mm 2 m/s 712 mmHg 83%
02:00 +17°C° 0 mm 2 m/s 712 mmHg 82%
03:00 +17°C° 0 mm 2 m/s 712 mmHg 82%
04:00 +16°C° 0 mm 2 m/s 712 mmHg 81%
05:00 +16°C° 0 mm 2 m/s 712 mmHg 80%
06:00 +18°C° 0 mm 2 m/s 712 mmHg 70%
07:00 +20°C° 0 mm 2 m/s 712 mmHg 60%
08:00 +23°C° 0 mm 2 m/s 712 mmHg 50%
09:00 +24°C° 0 mm 3 m/s 713 mmHg 48%
10:00 +25°C° 0 mm 4 m/s 713 mmHg 45%
11:00 +27°C° 0 mm 5 m/s 713 mmHg 43%
12:00 +27°C° 0 mm 5 m/s 713 mmHg 43%
13:00 +27°C° 0 mm 5 m/s 713 mmHg 44%
14:00 +27°C° 0 mm 5 m/s 712 mmHg 44%
15:00 +26°C° 0 mm 5 m/s 712 mmHg 48%
16:00 +25°C° 0 mm 5 m/s 712 mmHg 51%
17:00 +25°C° 0 mm 5 m/s 712 mmHg 54%
18:00 +22°C° 0 mm 4 m/s 712 mmHg 63%
19:00 +21°C° 0 mm 3 m/s 712 mmHg 71%
20:00 +19°C° 0 mm 2 m/s 712 mmHg 79%
21:00 +19°C° 0 mm 2 m/s 712 mmHg 80%
22:00 +18°C° 0 mm 2 m/s 712 mmHg 81%
23:00 +19°C° 0 mm 1 m/s 712 mmHg 82%

18 Junho, Sexta-feira

Tempo Temperatura Precipitação Vento Pressão Humidade
00:00 +19°C° 0 mm 1 m/s 711 mmHg 82%
01:00 +18°C° 0 mm 1 m/s 711 mmHg 82%
02:00 +18°C° 0 mm 1 m/s 711 mmHg 82%
03:00 +18°C° 0 mm 1 m/s 711 mmHg 80%
04:00 +18°C° 0 mm 1 m/s 711 mmHg 77%
05:00 +18°C° 0 mm 1 m/s 710 mmHg 74%
06:00 +21°C° 0 mm 1 m/s 711 mmHg 66%
07:00 +23°C° 0 mm 2 m/s 711 mmHg 57%
08:00 +25°C° 0 mm 2 m/s 711 mmHg 48%
09:00 +26°C° 0 mm 3 m/s 711 mmHg 45%
10:00 +27°C° 0 mm 3 m/s 711 mmHg 42%
11:00 +29°C° 0 mm 4 m/s 711 mmHg 39%
12:00 +29°C° 0 mm 5 m/s 711 mmHg 40%
13:00 +29°C° 0 mm 5 m/s 710 mmHg 41%
14:00 +29°C° 0 mm 5 m/s 710 mmHg 42%
15:00 +28°C° 0 mm 5 m/s 710 mmHg 45%
16:00 +27°C° 0 mm 5 m/s 710 mmHg 49%
17:00 +26°C° 0 mm 4 m/s 710 mmHg 52%
18:00 +25°C° 0 mm 3 m/s 710 mmHg 60%
19:00 +23°C° 0 mm 2 m/s 710 mmHg 69%
20:00 +20°C° 0 mm 2 m/s 710 mmHg 77%
21:00 +21°C° 0 mm 1 m/s 709 mmHg 78%
22:00 +21°C° 0 mm 1 m/s 709 mmHg 79%
23:00 +20°C° 0 mm 1 m/s 709 mmHg 80%

19 Junho, Sábado

Tempo Temperatura Precipitação Vento Pressão Humidade
00:00 +20°C° 0 mm 1 m/s 709 mmHg 80%
01:00 +19°C° 0 mm 1 m/s 709 mmHg 80%
02:00 +19°C° 0 mm 1 m/s 709 mmHg 80%
03:00 +19°C° 0 mm 1 m/s 709 mmHg 80%
04:00 +19°C° 0 mm 1 m/s 709 mmHg 80%
05:00 +19°C° 0 mm 1 m/s 709 mmHg 79%
06:00 +21°C° 0 mm 1 m/s 709 mmHg 70%
07:00 +23°C° 0 mm 2 m/s 709 mmHg 61%
08:00 +25°C° 0 mm 2 m/s 710 mmHg 51%
09:00 +27°C° 0 mm 3 m/s 710 mmHg 48%
10:00 +28°C° 0 mm 4 m/s 710 mmHg 45%
11:00 +30°C° 0 mm 5 m/s 710 mmHg 42%
12:00 +30°C° 0 mm 5 m/s 710 mmHg 42%
13:00 +30°C° 0 mm 5 m/s 710 mmHg 42%
14:00 +30°C° 0 mm 5 m/s 709 mmHg 42%
15:00 +29°C° 0 mm 5 m/s 709 mmHg 46%
16:00 +28°C° 0 mm 4 m/s 709 mmHg 49%
17:00 +27°C° 0 mm 4 m/s 709 mmHg 52%
18:00 +25°C° 0 mm 3 m/s 709 mmHg 62%
19:00 +22°C° 0 mm 3 m/s 709 mmHg 71%
20:00 +21°C° 0 mm 2 m/s 709 mmHg 81%
21:00 +20°C° 0 mm 2 m/s 709 mmHg 81%
22:00 +21°C° 0 mm 1 m/s 709 mmHg 81%
23:00 +20°C° 0 mm 1 m/s 709 mmHg 81%

20 Junho, Domingo

Tempo Temperatura Precipitação Vento Pressão Humidade
00:00 +20°C° 0 mm 1 m/s 709 mmHg 79%
01:00 +20°C° 0 mm 1 m/s 709 mmHg 77%
02:00 +19°C° 0 mm 1 m/s 709 mmHg 75%
03:00 +19°C° 0 mm 1 m/s 709 mmHg 72%
04:00 +19°C° 0 mm 1 m/s 709 mmHg 70%
05:00 +19°C° 0 mm 1 m/s 710 mmHg 68%
06:00 +22°C° 0 mm 1 m/s 710 mmHg 58%
07:00 +24°C° 0 mm 1 m/s 710 mmHg 47%
08:00 +26°C° 0 mm 2 m/s 711 mmHg 37%
09:00 +28°C° 0 mm 2 m/s 711 mmHg 34%
10:00 +29°C° 0 mm 3 m/s 711 mmHg 30%
11:00 +32°C° 0 mm 4 m/s 711 mmHg 27%
12:00 +32°C° 0 mm 4 m/s 711 mmHg 29%
13:00 +32°C° 0 mm 4 m/s 710 mmHg 31%
14:00 +32°C° 0 mm 5 m/s 710 mmHg 32%
15:00 +30°C° 0 mm 4 m/s 710 mmHg 36%
16:00 +29°C° 0 mm 4 m/s 710 mmHg 40%
17:00 +28°C° 0 mm 3 m/s 710 mmHg 43%
18:00 +26°C° 0 mm 3 m/s 710 mmHg 51%
19:00 +24°C° 0 mm 2 m/s 710 mmHg 59%
20:00 +23°C° 0 mm 2 m/s 710 mmHg 67%
21:00 +21°C° 0 mm 2 m/s 710 mmHg 67%
22:00 +22°C° 0 mm 1 m/s 710 mmHg 68%
23:00 +21°C° 0 mm 1 m/s 710 mmHg 68%
Mostrar mais